Terug naar catalogus

PROVES-ELECTRA

ActiefAmateurradioVLEO
NORAD 69795·PAYLOAD·🇺🇸 United States

Gelanceerd Nov 20, 1998 vanaf Baikonur Cosmodrome

Loading…

Volgende Passages (komende 24 uur)

TLE

VersSource: Space-Track

Epoch: Sep 14, 2026, 06:30 UTC

1 69795U 98067YK  26257.27141514  .00059258  00000-0  79453-3 0  9993
2 69795  51.6294 216.9428 0007798 136.1196 224.0416 15.57351215 11494

Volg PROVES-ELECTRA in realtime met AllMySat

Download on the App Store